User: anonymous   Login
Location: Unspecified
(0.0000°N, 0.0000°E)
Time: 21:25:08
(UTC+00:00)
Language:

Nova 3 - Orbit

View from above orbital plane
View from above orbital plane
View from above satellite
View from above satellite

Ground track
Ground track

The orbit data is extracted from the following two-line orbital elements,

1 15362U 84110A   18051.90008941 +.00000060 +00000-0 +12408-3 0  9991
2 15362 090.0471 055.9820 0030098 269.1332 153.0627 13.22745594609950
Epoch (UTC): 20 February 2018 21:36:07
Eccentricity: 0.0030098
inclination: 90.0471°
perigee height: 1151 km
apogee height: 1197 km
right ascension of ascending node: 55.9820°
argument of perigee: 269.1332°
revolutions per day: 13.22745594
mean anomaly at epoch: 153.0627°
orbit number at epoch: 60995

The dashed part of the orbit path shows where the satellite is in the earth's shadow,  

DLR